Location: *
(10.4782°N, 67.2163°W)
Time: 12:10:04
(UTC+00:00)

Cosmos 1782 - Pass Details

Date: 23 May 2024
Orbit: 510 x 517 km, 82.5° (Epoch: 24 June)

Event Time Altitude Azimuth Distance (km) Brightness Sun altitude
Exits shadow 00:14:58 - 199° (SSW) 1,975 5.6 -21.0°
Reaches altitude 10° 00:15:36 10° 202° (SSW) 1,723 5.3 -21.1°
Maximum altitude 00:19:12 43° 274° (W) 720 3.8 -21.9°
Drops below altitude 10° 00:22:49 10° 347° (NNW) 1,724 5.8 -22.7°
Sets 00:25:00 0° 354° (N) 2,611 6.7 -23.2°
